When you browse on this site, cookies collect data to enhance your experience and personalize the content and advertising you see.
Visit our Privacy Policy to learn more. By continuing to use the site, you agree to this use of cookies and data.
  • In United Kingdom
  • List of Countries
  • For 7 days
  • Water Temperature
  • Satellite Maps
  • Weather Map
  • Weather Widgets
  • user-avatar
    Login

    Hourly Weather Brest

    Today, 23 May, Thursday

    Time Temperature Precipitation Wind Pressure Humidity
    00:00 +13°C° 0 mm 1 mps 744 mmHg 91%
    01:00 +13°C° 0 mm 1 mps 744 mmHg 92%
    02:00 +13°C° 0 mm 1 mps 744 mmHg 92%
    03:00 +13°C° 0 mm 1 mps 744 mmHg 93%
    04:00 +13°C° 0 mm 1 mps 744 mmHg 93%
    05:00 +13°C° 0 mm 1 mps 744 mmHg 93%
    06:00 +15°C° 0 mm 1 mps 744 mmHg 88%
    07:00 +16°C° 0 mm 1 mps 744 mmHg 83%
    08:00 +19°C° 0 mm 1 mps 745 mmHg 77%
    09:00 +21°C° 0 mm 1 mps 745 mmHg 72%
    10:00 +22°C° 0 mm 1 mps 745 mmHg 66%
    11:00 +23°C° 0 mm 1 mps 744 mmHg 61%
    12:00 +24°C° 0 mm 1 mps 744 mmHg 59%
    13:00 +24°C° 0 mm 1 mps 744 mmHg 57%
    14:00 +24°C° 0 mm 1 mps 744 mmHg 55%
    15:00 +24°C° 0.3 mm 1 mps 744 mmHg 56%
    16:00 +24°C° 0.3 mm 1 mps 744 mmHg 57%
    17:00 +24°C° 0.3 mm 1 mps 744 mmHg 59%
    18:00 +23°C° 1 mm 1 mps 744 mmHg 67%
    19:00 +20°C° 1 mm 2 mps 744 mmHg 75%
    20:00 +18°C° 1 mm 2 mps 744 mmHg 83%
    21:00 +18°C° 0.2 mm 2 mps 744 mmHg 86%
    22:00 +17°C° 0.2 mm 2 mps 745 mmHg 89%
    23:00 +16°C° 0.2 mm 3 mps 745 mmHg 91%

    Tomorrow, 24 May, Friday

    Time Temperature Precipitation Wind Pressure Humidity
    00:00 +16°C° 0.2 mm 3 mps 745 mmHg 93%
    01:00 +16°C° 0.2 mm 3 mps 745 mmHg 95%
    02:00 +14°C° 0.2 mm 4 mps 745 mmHg 97%
    03:00 +14°C° 0.1 mm 4 mps 746 mmHg 96%
    04:00 +13°C° 0.1 mm 4 mps 746 mmHg 95%
    05:00 +13°C° 0.1 mm 4 mps 746 mmHg 95%
    06:00 +13°C° 0 mm 4 mps 746 mmHg 93%
    07:00 +13°C° 0 mm 3 mps 746 mmHg 92%
    08:00 +13°C° 0 mm 3 mps 746 mmHg 90%
    09:00 +16°C° 0 mm 3 mps 746 mmHg 85%
    10:00 +17°C° 0 mm 3 mps 746 mmHg 79%
    11:00 +19°C° 0 mm 3 mps 746 mmHg 74%
    12:00 +20°C° 0 mm 3 mps 746 mmHg 71%
    13:00 +21°C° 0 mm 3 mps 746 mmHg 68%
    14:00 +22°C° 0 mm 4 mps 746 mmHg 64%
    15:00 +22°C° 0.1 mm 4 mps 745 mmHg 67%
    16:00 +21°C° 0.1 mm 4 mps 745 mmHg 69%
    17:00 +21°C° 0.1 mm 4 mps 745 mmHg 71%
    18:00 +20°C° 0 mm 4 mps 745 mmHg 76%
    19:00 +19°C° 0 mm 3 mps 745 mmHg 81%
    20:00 +18°C° 0 mm 3 mps 745 mmHg 86%
    21:00 +17°C° 0 mm 3 mps 745 mmHg 88%
    22:00 +16°C° 0 mm 3 mps 745 mmHg 89%
    23:00 +14°C° 0 mm 3 mps 745 mmHg 91%

    Day after tomorrow, 25 May, Saturday

    Time Temperature Precipitation Wind Pressure Humidity
    00:00 +13°C° 0 mm 3 mps 745 mmHg 90%
    01:00 +13°C° 0 mm 3 mps 745 mmHg 89%
    02:00 +12°C° 0 mm 3 mps 745 mmHg 88%
    03:00 +12°C° 0 mm 3 mps 745 mmHg 88%
    04:00 +11°C° 0 mm 3 mps 745 mmHg 87%
    05:00 +12°C° 0 mm 2 mps 745 mmHg 86%
    06:00 +12°C° 0 mm 3 mps 745 mmHg 81%
    07:00 +14°C° 0 mm 3 mps 745 mmHg 76%
    08:00 +16°C° 0 mm 3 mps 745 mmHg 72%
    09:00 +17°C° 0 mm 3 mps 745 mmHg 66%
    10:00 +19°C° 0 mm 4 mps 745 mmHg 61%
    11:00 +20°C° 0 mm 4 mps 745 mmHg 55%
    12:00 +21°C° 0 mm 4 mps 745 mmHg 55%
    13:00 +21°C° 0 mm 4 mps 745 mmHg 55%
    14:00 +22°C° 0 mm 4 mps 745 mmHg 55%
    15:00 +22°C° 0 mm 4 mps 744 mmHg 57%
    16:00 +22°C° 0 mm 4 mps 744 mmHg 58%
    17:00 +22°C° 0 mm 4 mps 744 mmHg 60%
    18:00 +20°C° 0.2 mm 4 mps 744 mmHg 68%
    19:00 +19°C° 0.2 mm 3 mps 744 mmHg 76%
    20:00 +17°C° 0.2 mm 2 mps 744 mmHg 83%
    21:00 +16°C° 0 mm 2 mps 744 mmHg 85%
    22:00 +15°C° 0 mm 2 mps 745 mmHg 87%
    23:00 +14°C° 0 mm 2 mps 745 mmHg 89%

    26 May, Sunday

    Time Temperature Precipitation Wind Pressure Humidity
    00:00 +13°C° 0 mm 2 mps 745 mmHg 91%
    01:00 +12°C° 0 mm 2 mps 745 mmHg 92%
    02:00 +12°C° 0 mm 2 mps 745 mmHg 94%
    03:00 +10°C° 0 mm 2 mps 745 mmHg 94%
    04:00 +10°C° 0 mm 2 mps 745 mmHg 95%
    05:00 +10°C° 0 mm 2 mps 745 mmHg 95%
    06:00 +11°C° 0 mm 3 mps 745 mmHg 88%
    07:00 +13°C° 0 mm 3 mps 745 mmHg 82%
    08:00 +14°C° 0 mm 4 mps 745 mmHg 75%
    09:00 +17°C° 0 mm 4 mps 745 mmHg 70%
    10:00 +18°C° 0 mm 4 mps 745 mmHg 64%
    11:00 +19°C° 0 mm 5 mps 745 mmHg 58%
    12:00 +20°C° 0.1 mm 5 mps 745 mmHg 58%
    13:00 +20°C° 0.1 mm 6 mps 744 mmHg 58%
    14:00 +21°C° 0.1 mm 6 mps 744 mmHg 58%
    15:00 +21°C° 0.1 mm 6 mps 744 mmHg 58%
    16:00 +20°C° 0.1 mm 6 mps 744 mmHg 59%
    17:00 +20°C° 0.1 mm 6 mps 744 mmHg 59%
    18:00 +17°C° 0 mm 5 mps 744 mmHg 66%
    19:00 +17°C° 0 mm 4 mps 744 mmHg 72%
    20:00 +14°C° 0 mm 3 mps 744 mmHg 78%
    21:00 +13°C° 0 mm 3 mps 744 mmHg 81%
    22:00 +12°C° 0 mm 3 mps 744 mmHg 83%
    23:00 +11°C° 0 mm 3 mps 745 mmHg 85%

    27 May, Monday

    Time Temperature Precipitation Wind Pressure Humidity
    00:00 +11°C° 0 mm 3 mps 745 mmHg 88%
    01:00 +10°C° 0 mm 3 mps 745 mmHg 90%
    02:00 +10°C° 0 mm 3 mps 746 mmHg 92%
    03:00 +10°C° 0 mm 2 mps 746 mmHg 93%
    04:00 +9°C° 0 mm 2 mps 746 mmHg 94%
    05:00 +10°C° 0 mm 1 mps 746 mmHg 94%
    06:00 +12°C° 0 mm 2 mps 746 mmHg 88%
    07:00 +12°C° 0 mm 3 mps 746 mmHg 82%
    08:00 +14°C° 0 mm 4 mps 746 mmHg 76%
    09:00 +17°C° 0 mm 4 mps 746 mmHg 72%
    10:00 +18°C° 0 mm 4 mps 746 mmHg 68%
    11:00 +19°C° 0 mm 4 mps 746 mmHg 64%
    12:00 +20°C° 0 mm 4 mps 746 mmHg 62%
    13:00 +21°C° 0 mm 4 mps 746 mmHg 60%
    14:00 +22°C° 0 mm 4 mps 745 mmHg 58%
    15:00 +22°C° 0 mm 3 mps 745 mmHg 58%
    16:00 +22°C° 0 mm 3 mps 745 mmHg 59%
    17:00 +22°C° 0 mm 3 mps 745 mmHg 59%
    18:00 +21°C° 0 mm 3 mps 744 mmHg 65%
    19:00 +20°C° 0 mm 3 mps 744 mmHg 71%
    20:00 +19°C° 0 mm 2 mps 744 mmHg 77%
    21:00 +18°C° 0 mm 3 mps 744 mmHg 78%
    22:00 +18°C° 0 mm 3 mps 744 mmHg 79%
    23:00 +18°C° 0 mm 3 mps 743 mmHg 80%

    28 May, Tuesday

    Time Temperature Precipitation Wind Pressure Humidity
    00:00 +18°C° 0.3 mm 3 mps 743 mmHg 83%
    01:00 +17°C° 0.3 mm 3 mps 742 mmHg 86%
    02:00 +17°C° 0.3 mm 3 mps 742 mmHg 89%
    03:00 +17°C° 1.7 mm 3 mps 741 mmHg 92%
    04:00 +17°C° 1.7 mm 4 mps 741 mmHg 95%
    05:00 +17°C° 1.7 mm 4 mps 740 mmHg 97%
    06:00 +18°C° 0.1 mm 4 mps 740 mmHg 95%
    07:00 +19°C° 0.1 mm 5 mps 739 mmHg 93%
    08:00 +19°C° 0.1 mm 5 mps 739 mmHg 91%
    09:00 +21°C° 0 mm 6 mps 739 mmHg 83%
    10:00 +22°C° 0 mm 6 mps 739 mmHg 76%
    11:00 +23°C° 0 mm 7 mps 739 mmHg 69%
    12:00 +23°C° 0.5 mm 7 mps 739 mmHg 70%
    13:00 +23°C° 0.5 mm 6 mps 739 mmHg 72%
    14:00 +23°C° 0.5 mm 6 mps 739 mmHg 74%
    15:00 +23°C° 0.7 mm 5 mps 739 mmHg 75%
    16:00 +23°C° 0.7 mm 5 mps 739 mmHg 76%
    17:00 +22°C° 0.7 mm 4 mps 739 mmHg 77%
    18:00 +21°C° 0.7 mm 3 mps 739 mmHg 80%
    19:00 +20°C° 0.7 mm 3 mps 739 mmHg 84%
    20:00 +19°C° 0.7 mm 2 mps 739 mmHg 87%
    21:00 +18°C° 0 mm 2 mps 739 mmHg 89%
    22:00 +19°C° 0 mm 1 mps 739 mmHg 91%
    23:00 +18°C° 0 mm 1 mps 740 mmHg 93%
    Show more